TimeEDT,TemperatureF,Dew PointF,Humidity,Sea Level PressureIn,VisibilityMPH,Wind Direction,Wind SpeedMPH,Gust SpeedMPH,PrecipitationIn,Events,Conditions,WindDirDegrees,DateUTC
12:15 AM,51.1,49.1,93,30.22,10.0,Calm,Calm,-,N/A,,Clear,0,2012-10-24 04:15:00
12:35 AM,50.4,48.0,92,30.22,10.0,Calm,Calm,-,N/A,,Clear,0,2012-10-24 04:35:00
12:55 AM,50.4,48.2,92,30.22,10.0,Calm,Calm,-,N/A,,Clear,0,2012-10-24 04:55:00
1:15 AM,50.9,49.1,94,30.22,10.0,Calm,Calm,-,N/A,,Clear,0,2012-10-24 05:15:00
1:35 AM,49.8,47.7,92,30.22,10.0,Calm,Calm,-,N/A,,Clear,0,2012-10-24 05:35:00
2:15 AM,48.4,47.1,95,30.22,5.0,Calm,Calm,-,N/A,,Clear,0,2012-10-24 06:15:00
2:35 AM,47.8,46.8,96,30.22,7.0,Calm,Calm,-,N/A,,Clear,0,2012-10-24 06:35:00
2:55 AM,47.7,46.4,95,30.22,7.0,Calm,Calm,-,N/A,,Clear,0,2012-10-24 06:55:00
3:15 AM,47.7,46.0,94,30.22,10.0,Calm,Calm,-,N/A,,Clear,0,2012-10-24 07:15:00
3:35 AM,47.5,45.1,92,30.22,7.0,Calm,Calm,-,N/A,,Clear,0,2012-10-24 07:35:00
3:55 AM,47.7,46.4,95,30.22,7.0,Calm,Calm,-,N/A,,Clear,0,2012-10-24 07:55:00
4:15 AM,48.0,46.0,93,30.22,10.0,Calm,Calm,-,N/A,,Clear,0,2012-10-24 08:15:00
4:35 AM,48.2,45.7,91,30.22,10.0,Calm,Calm,-,N/A,,Clear,0,2012-10-24 08:35:00
4:55 AM,49.3,46.8,91,30.22,10.0,Calm,Calm,-,N/A,,Clear,0,2012-10-24 08:55:00
5:15 AM,49.1,47.3,93,30.22,10.0,Calm,Calm,-,N/A,,Clear,0,2012-10-24 09:15:00
5:35 AM,48.6,46.8,93,30.23,10.0,Calm,Calm,-,N/A,,Clear,0,2012-10-24 09:35:00
5:55 AM,48.2,46.4,93,30.23,10.0,Calm,Calm,-,N/A,,Clear,0,2012-10-24 09:55:00
6:15 AM,48.9,47.5,95,30.24,10.0,Calm,Calm,-,N/A,,Clear,0,2012-10-24 10:15:00
6:35 AM,48.9,47.1,93,30.24,10.0,Calm,Calm,-,N/A,,Clear,0,2012-10-24 10:35:00
6:55 AM,48.9,46.9,93,30.24,10.0,Calm,Calm,-,N/A,,Scattered Clouds,0,2012-10-24 10:55:00
7:15 AM,49.3,47.5,94,30.25,10.0,Calm,Calm,-,N/A,,Scattered Clouds,0,2012-10-24 11:15:00
7:35 AM,50.0,47.3,90,30.26,10.0,Calm,Calm,-,N/A,,Clear,0,2012-10-24 11:35:00
7:55 AM,49.6,47.5,92,30.26,10.0,Calm,Calm,-,N/A,,Clear,0,2012-10-24 11:55:00
8:15 AM,49.5,48.0,95,30.27,10.0,Calm,Calm,-,N/A,,Clear,0,2012-10-24 12:15:00
8:35 AM,49.8,48.0,94,30.28,10.0,Calm,Calm,-,N/A,,Clear,0,2012-10-24 12:35:00
8:55 AM,52.9,50.0,90,30.28,10.0,West,3.5,-,N/A,,Clear,270,2012-10-24 12:55:00
9:15 AM,53.6,50.2,88,30.28,10.0,Calm,Calm,-,N/A,,Clear,0,2012-10-24 13:15:00
9:35 AM,56.3,51.6,84,30.28,10.0,West,3.5,-,N/A,,Clear,260,2012-10-24 13:35:00
9:55 AM,60.6,54.9,81,30.29,10.0,West,3.5,-,N/A,,Clear,260,2012-10-24 13:55:00
10:15 AM,63.9,54.7,72,30.29,10.0,West,6.9,-,N/A,,Clear,260,2012-10-24 14:15:00
10:35 AM,66.2,52.7,62,30.28,10.0,WSW,9.2,-,N/A,,Clear,240,2012-10-24 14:35:00
10:55 AM,67.5,51.4,56,30.28,10.0,WSW,9.2,-,N/A,,Clear,240,2012-10-24 14:55:00
11:15 AM,69.1,52.0,54,30.28,10.0,WSW,10.4,-,N/A,,Clear,250,2012-10-24 15:15:00
11:35 AM,70.7,50.0,48,30.27,10.0,SW,8.1,-,N/A,,Clear,220,2012-10-24 15:35:00
11:55 AM,72.0,50.5,47,30.26,10.0,SW,6.9,-,N/A,,Clear,220,2012-10-24 15:55:00
12:15 PM,72.9,50.2,45,30.26,10.0,SW,5.8,-,N/A,,Clear,230,2012-10-24 16:15:00
12:35 PM,73.8,49.5,42,30.25,10.0,WSW,3.5,-,N/A,,Clear,250,2012-10-24 16:35:00
12:55 PM,74.8,49.8,41,30.24,10.0,WSW,6.9,-,N/A,,Clear,240,2012-10-24 16:55:00
1:15 PM,75.0,48.7,39,30.23,10.0,SSW,5.8,-,N/A,,Clear,210,2012-10-24 17:15:00
1:35 PM,76.1,47.3,36,30.22,10.0,SSW,4.6,-,N/A,,Clear,210,2012-10-24 17:35:00
1:55 PM,76.5,48.9,38,30.22,10.0,SW,4.6,-,N/A,,Clear,230,2012-10-24 17:55:00
2:15 PM,76.8,46.4,34,30.20,10.0,WSW,3.5,-,N/A,,Clear,250,2012-10-24 18:15:00
2:35 PM,77.4,45.0,32,30.20,10.0,SW,4.6,-,N/A,,Clear,230,2012-10-24 18:35:00
3:15 PM,78.1,42.8,28,30.19,10.0,Calm,Calm,-,N/A,,Clear,0,2012-10-24 19:15:00
3:35 PM,78.6,40.8,26,30.19,10.0,South,3.5,-,N/A,,Clear,190,2012-10-24 19:35:00
3:55 PM,78.8,40.8,26,30.18,10.0,Calm,Calm,-,N/A,,Clear,0,2012-10-24 19:55:00
4:15 PM,78.1,40.3,26,30.18,10.0,WSW,3.5,-,N/A,,Clear,240,2012-10-24 20:15:00
4:35 PM,77.4,42.6,29,30.18,10.0,West,4.6,-,N/A,,Clear,260,2012-10-24 20:35:00
5:15 PM,76.8,40.5,27,30.18,10.0,WSW,4.6,-,N/A,,Clear,250,2012-10-24 21:15:00
5:35 PM,77.0,38.1,25,30.18,10.0,Calm,Calm,-,N/A,,Clear,0,2012-10-24 21:35:00
5:55 PM,76.6,38.1,25,30.18,10.0,Calm,Calm,-,N/A,,Clear,0,2012-10-24 21:55:00
6:15 PM,75.4,37.9,26,30.18,10.0,Calm,Calm,-,N/A,,Clear,0,2012-10-24 22:15:00
6:35 PM,73.4,39.9,30,30.19,10.0,Calm,Calm,-,N/A,,Clear,0,2012-10-24 22:35:00
6:55 PM,69.6,43.5,39,30.19,10.0,Calm,Calm,-,N/A,,Clear,0,2012-10-24 22:55:00
7:15 PM,66.9,45.9,47,30.19,10.0,Calm,Calm,-,N/A,,Clear,0,2012-10-24 23:15:00
7:35 PM,64.0,47.5,55,30.20,10.0,Calm,Calm,-,N/A,,Clear,0,2012-10-24 23:35:00
7:55 PM,62.4,47.3,58,30.20,5.0,Calm,Calm,-,N/A,,Haze,0,2012-10-24 23:55:00
8:15 PM,60.6,47.7,62,30.21,10.0,Calm,Calm,-,N/A,,Clear,0,2012-10-25 00:15:00
8:55 PM,57.6,47.3,69,30.21,10.0,Calm,Calm,-,N/A,,Clear,0,2012-10-25 00:55:00
9:15 PM,57.2,46.6,68,30.21,10.0,Calm,Calm,-,N/A,,Clear,0,2012-10-25 01:15:00
9:35 PM,55.6,46.6,72,30.21,10.0,Calm,Calm,-,N/A,,Clear,0,2012-10-25 01:35:00
9:55 PM,55.6,46.6,72,30.22,10.0,Calm,Calm,-,N/A,,Clear,0,2012-10-25 01:55:00
10:15 PM,56.7,45.7,67,30.22,10.0,Calm,Calm,-,N/A,,Clear,0,2012-10-25 02:15:00
10:35 PM,55.4,46.4,72,30.21,10.0,Calm,Calm,-,N/A,,Clear,0,2012-10-25 02:35:00
10:55 PM,54.3,45.9,73,30.22,10.0,Calm,Calm,-,N/A,,Clear,0,2012-10-25 02:55:00
11:15 PM,54.1,45.9,74,30.22,10.0,Calm,Calm,-,N/A,,Clear,0,2012-10-25 03:15:00
11:35 PM,53.2,45.7,76,30.22,10.0,Calm,Calm,-,N/A,,Clear,0,2012-10-25 03:35:00
11:55 PM,52.7,45.5,76,30.22,10.0,Calm,Calm,-,N/A,,Clear,0,2012-10-25 03:55:00